Weather History for KCDA - January, 2014

Change the Weather History Date:

Wednesday, January 8, 2014

  Actual Average (K1V4) Record (K1V4)
Temperature  
Mean Temperature 9 °F 17 °F  
Max Temperature 15 °F 27 °F 59 °F (2008)
Min Temperature 3 °F 7 °F -26 °F (1973)
Degree Days  
Heating Degree Days 56 48  
Month to date heating degree days 380  
Since 1 July heating degree days 3333  
Cooling Degree Days 0 0  
Month to date cooling degree days 0  
Year to date cooling degree days 0  
Moisture  
Dew Point -1 °F    
Average Humidity 68    
Maximum Humidity 82    
Minimum Humidity 46    
Precipitation  
Precipitation 0.00 in 0.08 in 1.59 in (1998)
Month to date precipitation 0.65  
Year to date precipitation 0.65  
Sea Level Pressure  
Sea Level Pressure 30.21 in    
Wind  
Wind Speed 6 mph (SW)    
Max Wind Speed 9 mph    
Max Gust Speed 17 mph    
Visibility 8 miles    
Events Snow    
T = Trace of Precipitation, MM = Missing Value Source: NWS Daily Summary

Daily Weather History Graph

Daily Weather History Graph

Search for Another Location

Airport or City:

Trip Planner

Search our weather history database for the weather conditions in past years. The results will help you decide how hot, cold, wet, or windy it might be!

Date:

Astronomy

Jan. 08, 2014 Rise Set
Actual Time 7:24 AM EST 4:25 PM EST
Civil Twilight 6:51 AM EST 4:58 PM EST
Nautical Twilight 6:14 AM EST 5:35 PM EST
Astronomical Twilight 5:39 AM EST 6:10 PM EST
Moon 11:24 AM EST (1/8) 12:17 AM EST (1/8)
Length of Visible Light 10h 07m
Length of Day
9h 01m
First Quarter, 56% of the Moon is Illuminated
Jan 8
First Quarter
Jan 15
Full
Jan 24
Last Quarter
Jan 30
New
Feb 6
First Quarter

Hourly Weather History & Observations

Time (EST) Temp. Windchill Dew Point Humidity Pressure Visibility Wind Dir Wind Speed Gust Speed Precip Events Conditions
12:15 AM 3.7 °F -9.6 °F -1.8 °F 78% 29.96 in 1.8 mi SW 8.1 mph - N/A Snow Light Snow
12:35 AM 3.9 °F -8.2 °F -1.3 °F 79% 29.97 in 2.0 mi SW 6.9 mph - N/A Snow Light Snow
12:55 AM 4.1 °F -8.0 °F -0.9 °F 80% 29.98 in 2.0 mi SW 6.9 mph - N/A Snow Light Snow
1:15 AM 4.1 °F -5.1 °F -0.8 °F 80% 29.99 in 2.5 mi SW 4.6 mph - N/A Snow Light Snow
1:35 AM 4.1 °F -9.2 °F -0.6 °F 81% 30.01 in 2.0 mi SW 8.1 mph - N/A Snow Light Snow
1:55 AM 4.1 °F -6.7 °F -0.4 °F 82% 30.02 in 2.0 mi SW 5.8 mph - N/A Snow Light Snow
2:15 AM 4.5 °F -7.6 °F -0.4 °F 80% 30.04 in 3.0 mi SW 6.9 mph - N/A Snow Light Snow
2:35 AM 4.6 °F -8.5 °F -0.4 °F 80% 30.05 in 3.0 mi SW 8.1 mph - N/A Snow Light Snow
2:55 AM 5.0 °F -6.9 °F -0.0 °F 80% 30.06 in 4.0 mi SW 6.9 mph - N/A Snow Light Snow
3:15 AM 5.0 °F -8.1 °F -0.6 °F 78% 30.06 in 5.0 mi SW 8.1 mph - N/A   Haze
3:35 AM 5.0 °F -9.1 °F -0.6 °F 78% 30.06 in 7.0 mi SW 9.2 mph - N/A   Overcast
3:55 AM 5.0 °F -8.1 °F -0.6 °F 78% 30.08 in 7.0 mi SW 8.1 mph - N/A   Overcast
4:15 AM 5.0 °F -6.9 °F -0.4 °F 78% 30.08 in 5.0 mi SW 6.9 mph - N/A   Haze
4:35 AM 4.6 °F -7.4 °F -0.4 °F 80% 30.09 in 5.0 mi SW 6.9 mph - N/A Snow Light Snow
4:55 AM 4.1 °F -8.0 °F -1.3 °F 78% 30.10 in 5.0 mi SW 6.9 mph - N/A   Haze
5:15 AM 3.7 °F -5.5 °F -1.5 °F 79% 30.11 in 7.0 mi SW 4.6 mph - N/A   Overcast
5:35 AM 4.1 °F -3.2 °F -1.3 °F 78% 30.11 in 7.0 mi SW 3.5 mph - N/A   Overcast
5:55 AM 5.0 °F -2.1 °F -0.8 °F 77% 30.13 in 7.0 mi SW 3.5 mph - N/A   Overcast
6:15 AM 4.1 °F -9.2 °F -1.1 °F 79% 30.14 in 5.0 mi SW 8.1 mph - N/A   Haze
6:35 AM 4.1 °F -6.7 °F -0.9 °F 80% 30.15 in 5.0 mi SW 5.8 mph - N/A   Haze
6:55 AM 4.1 °F -5.1 °F -0.9 °F 80% 30.16 in 5.0 mi SW 4.6 mph - N/A Snow Light Snow
7:15 AM 4.1 °F -5.1 °F -1.1 °F 79% 30.16 in 4.0 mi SW 4.6 mph - N/A Snow Light Snow
7:35 AM 3.9 °F -5.3 °F -1.3 °F 79% 30.18 in 7.0 mi SW 4.6 mph - N/A Snow Light Snow
7:55 AM 4.1 °F -5.1 °F -1.3 °F 78% 30.19 in 10.0 mi SW 4.6 mph - N/A   Overcast
8:15 AM 4.5 °F -2.7 °F -1.3 °F 77% 30.20 in 10.0 mi SW 3.5 mph - N/A   Overcast
8:35 AM 4.6 °F -7.4 °F -1.3 °F 76% 30.22 in 10.0 mi SW 6.9 mph - N/A   Overcast
8:55 AM 5.0 °F -8.1 °F -1.8 °F 73% 30.23 in 10.0 mi SW 8.1 mph - N/A   Overcast
9:15 AM 5.7 °F -6.1 °F -1.8 °F 71% 30.24 in 7.0 mi SW 6.9 mph - N/A   Overcast
9:35 AM 6.3 °F -5.4 °F -1.3 °F 71% 30.25 in 7.0 mi SW 6.9 mph - N/A   Overcast
9:55 AM 7.0 °F -3.3 °F -0.8 °F 71% 30.26 in 5.0 mi SW 5.8 mph - N/A   Haze
10:15 AM 7.3 °F -5.2 °F -0.4 °F 71% 30.27 in 5.0 mi SW 8.1 mph - N/A Snow Light Snow
10:35 AM 7.7 °F -4.8 °F 0.5 °F 72% 30.26 in 4.0 mi SW 8.1 mph - N/A Snow Light Snow
10:55 AM 8.4 °F -3.9 °F 1.4 °F 73% 30.26 in 2.5 mi SW 8.1 mph - N/A Snow Light Snow
11:15 AM 8.2 °F -4.1 °F 1.4 °F 74% 30.25 in 2.5 mi SW 8.1 mph - N/A Snow Light Snow
11:35 AM 8.8 °F -4.4 °F 1.4 °F 72% 30.24 in 3.0 mi SW 9.2 mph - N/A Snow Light Snow
11:55 AM 10.0 °F -1.9 °F 1.4 °F 68% 30.24 in 5.0 mi WSW 8.1 mph - N/A   Haze
12:15 PM 11.1 °F -1.6 °F 1.9 °F 67% 30.23 in 5.0 mi WSW 9.2 mph - N/A   Haze
12:35 PM 11.5 °F 0.9 °F 2.1 °F 66% 30.23 in 10.0 mi WSW 6.9 mph - N/A   Overcast
12:55 PM 11.7 °F 3.7 °F 2.3 °F 66% 30.23 in 10.0 mi WSW 4.6 mph - N/A   Overcast
1:15 PM 13.5 °F 5.8 °F 2.7 °F 62% 30.23 in 10.0 mi SW 4.6 mph - N/A   Overcast
1:35 PM 15.1 °F - 3.0 °F 59% 30.23 in 10.0 mi Calm Calm - N/A   Overcast
1:55 PM 15.6 °F 4.9 °F 1.0 °F 53% 30.23 in 10.0 mi West 8.1 mph - N/A   Mostly Cloudy
2:15 PM 15.8 °F 5.1 °F -0.6 °F 49% 30.23 in 10.0 mi West 8.1 mph - N/A   Mostly Cloudy
2:35 PM 15.3 °F 3.5 °F -0.2 °F 50% 30.24 in 10.0 mi West 9.2 mph - N/A   Scattered Clouds
2:55 PM 14.5 °F 2.7 °F -1.7 °F 49% 30.24 in 10.0 mi West 9.2 mph - N/A   Scattered Clouds
3:15 PM 14.9 °F 4.0 °F -1.8 °F 48% 30.24 in 10.0 mi WNW 8.1 mph - N/A   Clear
3:35 PM 15.6 °F 5.9 °F -2.0 °F 46% 30.25 in 10.0 mi West 6.9 mph - N/A   Scattered Clouds
3:55 PM 15.1 °F 4.2 °F -1.7 °F 48% 30.25 in 10.0 mi West 8.1 mph 17.3 mph N/A   Scattered Clouds
4:15 PM 14.7 °F 4.8 °F -2.0 °F 48% 30.25 in 10.0 mi WSW 6.9 mph - N/A   Clear
4:35 PM 13.3 °F - -1.7 °F 51% 30.26 in 10.0 mi Calm Calm - N/A   Scattered Clouds
4:55 PM 12.7 °F 6.7 °F -1.8 °F 52% 30.26 in 10.0 mi WNW 3.5 mph - N/A   Clear
5:15 PM 12.6 °F - -1.7 °F 53% 30.27 in 10.0 mi Calm Calm - N/A   Clear
5:35 PM 12.0 °F 5.9 °F -2.0 °F 53% 30.28 in 10.0 mi SW 3.5 mph - N/A   Clear
5:55 PM 11.1 °F 4.9 °F -1.7 °F 57% 30.29 in 10.0 mi West 3.5 mph - N/A   Clear
6:15 PM 10.4 °F 4.0 °F -1.5 °F 59% 30.30 in 10.0 mi WSW 3.5 mph - N/A   Clear
6:35 PM 9.7 °F - -1.7 °F 60% 30.30 in 10.0 mi Calm Calm - N/A   Scattered Clouds
6:55 PM 9.3 °F - -1.5 °F 62% 30.30 in 10.0 mi Calm Calm - N/A   Scattered Clouds
7:15 PM 9.3 °F 1.0 °F -2.2 °F 60% 30.30 in 10.0 mi South 4.6 mph - N/A   Scattered Clouds
7:35 PM 9.3 °F 1.0 °F -1.8 °F 61% 30.30 in 10.0 mi SSE 4.6 mph - N/A   Scattered Clouds
7:55 PM 8.4 °F -0.1 °F -1.3 °F 65% 30.30 in 10.0 mi South 4.6 mph - N/A   Scattered Clouds
8:15 PM 9.1 °F 2.6 °F -1.3 °F 63% 30.31 in 10.0 mi SW 3.5 mph - N/A   Mostly Cloudy
8:35 PM 8.2 °F - -0.9 °F 66% 30.31 in 10.0 mi Calm Calm - N/A   Overcast
8:55 PM 8.6 °F 2.0 °F -1.3 °F 64% 30.32 in 10.0 mi South 3.5 mph - N/A   Overcast
9:15 PM 8.2 °F 1.6 °F -1.3 °F 65% 30.32 in 10.0 mi South 3.5 mph - N/A   Overcast
9:35 PM 8.4 °F -2.8 °F -1.3 °F 65% 30.32 in 10.0 mi SSE 6.9 mph - N/A   Overcast
9:55 PM 7.9 °F -0.7 °F -1.7 °F 65% 30.31 in 10.0 mi SW 4.6 mph - N/A   Mostly Cloudy
10:15 PM 7.5 °F -1.1 °F -1.8 °F 66% 30.31 in 10.0 mi SW 4.6 mph - N/A   Scattered Clouds
10:35 PM 7.2 °F -3.0 °F -1.8 °F 67% 30.32 in 10.0 mi SW 5.8 mph - N/A   Scattered Clouds
10:55 PM 7.7 °F -2.4 °F -1.3 °F 67% 30.32 in 10.0 mi SW 5.8 mph - N/A   Mostly Cloudy
11:15 PM 7.2 °F 0.3 °F -1.3 °F 68% 30.31 in 10.0 mi SW 3.5 mph - N/A   Scattered Clouds
11:35 PM 6.8 °F -0.1 °F -1.3 °F 69% 30.31 in 10.0 mi SW 3.5 mph - N/A   Scattered Clouds
11:55 PM 6.3 °F -0.7 °F -1.3 °F 71% 30.30 in 10.0 mi SW 3.5 mph - N/A   Scattered Clouds